TimeEST,TemperatureF,Dew PointF,Humidity,Sea Level PressureIn,VisibilityMPH,Wind Direction,Wind SpeedMPH,Gust SpeedMPH,PrecipitationIn,Events,Conditions,WindDirDegrees,DateUTC
12:53 AM,33.1,12.9,43,30.09,10.0,WNW,24.2,28.8,N/A,,Clear,300,2012-12-22 05:53:00
1:53 AM,33.1,12.0,42,30.09,10.0,WNW,17.3,27.6,N/A,,Clear,300,2012-12-22 06:53:00
2:53 AM,33.1,12.0,42,30.10,10.0,WNW,12.7,-,N/A,,Clear,300,2012-12-22 07:53:00
3:53 AM,32.0,12.0,44,30.11,10.0,WNW,10.4,-,N/A,,Clear,300,2012-12-22 08:53:00
4:53 AM,30.9,12.0,46,30.12,10.0,West,12.7,-,N/A,,Clear,280,2012-12-22 09:53:00
5:53 AM,30.9,12.0,46,30.13,10.0,WNW,11.5,-,N/A,,Clear,290,2012-12-22 10:53:00
6:53 AM,33.1,10.0,38,30.14,10.0,WNW,12.7,-,N/A,,Clear,300,2012-12-22 11:53:00
7:53 AM,32.0,10.0,40,30.15,10.0,WNW,9.2,-,N/A,,Clear,300,2012-12-22 12:53:00
8:53 AM,37.0,8.1,30,30.15,10.0,WNW,12.7,-,N/A,,Clear,300,2012-12-22 13:53:00
9:53 AM,39.0,10.0,30,30.19,10.0,West,15.0,-,N/A,,Clear,280,2012-12-22 14:53:00
10:53 AM,42.1,10.9,28,30.21,10.0,West,15.0,-,N/A,,Clear,270,2012-12-22 15:53:00
11:53 AM,45.0,12.9,27,30.20,10.0,West,13.8,19.6,N/A,,Clear,270,2012-12-22 16:53:00
12:53 PM,46.9,15.1,28,30.19,10.0,West,15.0,21.9,N/A,,Clear,260,2012-12-22 17:53:00
1:53 PM,48.9,15.1,26,30.17,10.0,WSW,16.1,-,N/A,,Clear,250,2012-12-22 18:53:00
2:53 PM,48.9,15.1,26,30.17,10.0,West,13.8,19.6,N/A,,Clear,270,2012-12-22 19:53:00
3:53 PM,48.9,15.1,26,30.17,10.0,West,12.7,-,N/A,,Clear,280,2012-12-22 20:53:00
4:53 PM,46.0,14.0,28,30.19,10.0,West,16.1,21.9,N/A,,Clear,270,2012-12-22 21:53:00
5:53 PM,43.0,14.0,31,30.20,10.0,West,9.2,19.6,N/A,,Clear,270,2012-12-22 22:53:00
6:53 PM,41.0,12.9,32,30.21,10.0,West,11.5,-,N/A,,Clear,280,2012-12-22 23:53:00
7:53 PM,39.9,12.9,33,30.22,10.0,WNW,9.2,-,N/A,,Clear,290,2012-12-23 00:53:00
8:53 PM,37.9,15.1,39,30.21,10.0,WNW,5.8,-,N/A,,Clear,290,2012-12-23 01:53:00
9:53 PM,37.9,14.0,38,30.20,10.0,West,6.9,-,N/A,,Clear,280,2012-12-23 02:53:00
10:53 PM,39.9,12.9,33,30.20,10.0,West,6.9,-,N/A,,Clear,280,2012-12-23 03:53:00
11:53 PM,37.9,14.0,38,30.19,10.0,West,4.6,-,N/A,,Clear,280,2012-12-23 04:53:00